Riverside, CA

10:38 PM PDT on April 21, 2018 (GMT -0700)
Riverside Municipal

Weather History for KRAL - January, 2013

Change the Weather History Date:

Sunday, January 20, 2013

  Actual Average Record
Temperature  
Mean Temperature 61 °F 55 °F  
Max Temperature 78 °F 67 °F 84 °F (2014)
Min Temperature 43 °F 44 °F 24 °F (1948)
Degree Days  
Heating Degree Days 4 10  
Month to date heating degree days 245 204  
Since 1 July heating degree days 688 730  
Cooling Degree Days 0 0  
Month to date cooling degree days 0 0  
Year to date cooling degree days 0 0  
Growing Degree Days 11 (Base 50)    
Moisture  
Dew Point 12 °F    
Average Humidity 22    
Maximum Humidity 37    
Minimum Humidity 6    
Precipitation  
Precipitation 0.00 in 0.10 in 1.40 in (1933)
Month to date precipitation 0.03 2.23  
Year to date precipitation 0.03 2.23  
Since 1 July precipitation 1.94  
Snow  
Snow 0.00 in - - ()
Month to date snowfall 0.0  
Year to date snowfall 0.0  
Snow Depth 0.00 in    
Sea Level Pressure  
Sea Level Pressure 30.08 in    
Wind  
Wind Speed 7 mph (NE)    
Max Wind Speed 17 mph    
Max Gust Speed 26 mph    
Visibility 10 miles    
Events      
T = Trace of Precipitation, MM = Missing Value Source: NWS Daily Summary

Daily Weather History Graph

Daily Weather History Graph

Search for Another Location

Airport or City:

Astronomy

Jan. 20, 2013 Rise Set
Actual Time 6:53 AM PST 5:08 PM PST
Civil Twilight 6:26 AM PST 5:35 PM PST
Nautical Twilight 5:55 AM PST 6:06 PM PST
Astronomical Twilight 5:26 AM PST 6:36 PM PST
Moon 12:12 PM PST (1/20) 1:31 AM PST (1/20)
Length of Visible Light 11h 09m
Length of Day
10h 15m
Waxing Gibbous, 67% of the Moon is Illuminated
Jan 20
Waxing Gibbous
Jan 26
Full
Feb 3
Last Quarter
Feb 9
New
Feb 17
First Quarter

Hourly Weather History & Observations

Time (PST) Temp. Windchill Dew Point Humidity Pressure Visibility Wind Dir Wind Speed Gust Speed Precip Events Conditions
12:53 AM 48.9 °F - 19.0 °F 31% 30.13 in 10.0 mi ENE 4.6 mph - N/A   Clear
1:53 AM 46.9 °F - 19.9 °F 34% 30.13 in 10.0 mi ENE 4.6 mph - N/A   Clear
2:53 AM 48.0 °F - 19.0 °F 32% 30.12 in 10.0 mi NE 5.8 mph - N/A   Clear
3:53 AM 45.0 °F 42.6 °F 19.9 °F 37% 30.11 in 10.0 mi East 4.6 mph - N/A   Clear
4:53 AM 46.0 °F 43.1 °F 19.0 °F 34% 30.11 in 10.0 mi NE 5.8 mph - N/A   Clear
5:53 AM 48.0 °F - 17.1 °F 29% 30.11 in 10.0 mi NNE 6.9 mph - N/A   Clear
6:53 AM 46.9 °F - 17.1 °F 30% 30.11 in 10.0 mi ENE 6.9 mph - N/A   Clear
7:53 AM 50.0 °F - 18.0 °F 28% 30.12 in 10.0 mi NE 4.6 mph - N/A   Clear
8:53 AM 55.9 °F - 19.9 °F 25% 30.13 in 10.0 mi East 3.5 mph - N/A   Clear
9:53 AM 68.0 °F - 16.0 °F 14% 30.13 in 10.0 mi East 4.6 mph - N/A   Clear
10:53 AM 73.9 °F - 12.0 °F 9% 30.11 in 10.0 mi Variable 3.5 mph - N/A   Clear
11:53 AM 77.0 °F - 8.1 °F 7% 30.07 in 10.0 mi NNE 9.2 mph - N/A   Clear
12:53 PM 75.9 °F - 6.1 °F 7% 30.03 in 10.0 mi NE 10.4 mph 23.0 mph N/A   Clear
1:53 PM 77.0 °F - 7.0 °F 7% 30.01 in 10.0 mi NNE 12.7 mph 23.0 mph N/A   Clear
2:53 PM 75.9 °F - 5.0 °F 6% 30.00 in 10.0 mi NNE 15.0 mph 24.2 mph N/A   Clear
3:53 PM 75.0 °F - 5.0 °F 7% 30.00 in 10.0 mi NNE 12.7 mph 23.0 mph N/A   Clear
4:53 PM 72.0 °F - 5.0 °F 7% 30.01 in 10.0 mi NNE 10.4 mph 20.7 mph N/A   Clear
5:53 PM 69.1 °F - 5.0 °F 8% 30.04 in 10.0 mi NE 4.6 mph - N/A   Clear
6:53 PM 66.9 °F - 5.0 °F 9% 30.05 in 10.0 mi ENE 4.6 mph - N/A   Clear
7:53 PM 63.0 °F - 6.1 °F 11% 30.07 in 10.0 mi East 4.6 mph - N/A   Clear
8:53 PM 61.0 °F - 8.1 °F 12% 30.07 in 10.0 mi East 4.6 mph - N/A   Clear
9:53 PM 61.0 °F - 10.0 °F 13% 30.07 in 10.0 mi ENE 4.6 mph - N/A   Clear
10:53 PM 57.0 °F - 12.9 °F 18% 30.07 in 10.0 mi East 3.5 mph - N/A   Clear
11:53 PM 51.1 °F - 18.0 °F 27% 30.07 in 10.0 mi ENE 5.8 mph - N/A   Clear